Regional Weather Roundup
Issued by NWS

Home | Current Version | Previous Version | Graphics & Text | Print | Product List | Glossary On
Versions: 1 2 3 4 5 6 7 8 9 10 11 12 13 14 15 16 17 18 19 20 21 22 23 24 25 26 27 28 29 30 31 32 33 34 35 36 37 38 39 40 41 42 43 44 45 46 47 48 49 50
000
ASUS43 KLMK 240202
RWRKY
KENTUCKY REGIONAL WEATHER ROUNDUP
NATIONAL WEATHER SERVICE LOUISVILLE KY
1000 PM EDT MON APR 23 2018

NOTE "FAIR" INDICATES FEW OR NO CLOUDS BELOW 12,000 FEET
WITH NO SIGNIFICANT WEATHER AND/OR OBSTRUCTIONS TO VISIBILITY.

KYZ001>023-026-027-061>063-070>075-240300-
WESTERN AND SOUTH CENTRAL KENTUCKY

CITY           SKY/WX    TMP DP  RH WIND       PRES   REMARKS
PADUCAH        MOCLDY    57  55  93 NW3       29.92R
HENDERSON      FAIR      57  55  93 NE5       29.95R
OWENSBORO      FAIR      57  55  93 E5        29.94R
HOPKINSVILLE   NOT AVBL
BOWLING GREEN  CLOUDY    57  55  93 NE5       29.94S
GLASGOW        NOT AVBL
$$

KYZ024-025-028>034-038-045-046-053-240300-
NORTH CENTRAL KENTUCKY

CITY           SKY/WX    TMP DP  RH WIND       PRES   REMARKS
LOUISVILLE/SDF LGT RAIN  58  52  80 E10       29.99S
LOUISVILLE/LOU LGT RAIN  57  53  86 E10       30.00S
FORT KNOX      MOCLDY    56  53  91 NE10      29.98S
$$

KYZ035>037-039>044-047>052-055>060-089>105-240300-
NORTHEAST KENTUCKY

CITY           SKY/WX    TMP DP  RH WIND       PRES   REMARKS
LEXINGTON      CLOUDY    54  51  90 NE10      30.01S
COVINGTON      CLOUDY    53  49  86 E13       30.05F
FRANKFORT      LGT RAIN  55  50  83 NE6       30.00F
$$

KYZ054-064>069-076>088-106>120-240300-
SOUTHEAST KENTUCKY

CITY           SKY/WX    TMP DP  RH WIND       PRES   REMARKS
JACKSON        FAIR      57  46  66 VRB3      30.03R
LONDON         MOCLDY    55  52  89 E3        29.97F
SOMERSET       NOT AVBL
MIDDLESBORO    RAIN      56  52  88 CALM      30.00F
MONTICELLO     RAIN      55  54  96 N12       29.98R
$$




USA.gov is the U.S. government's official web portal to all federal, state and local government web resources and services.